Regional Weather Roundup
Issued by NWS

Home | Current Version | Previous Version | Graphics & Text | Print | Product List | Glossary Off
Versions: 1 2 3 4 5 6 7 8 9 10 11 12 13 14 15 16 17 18 19 20 21 22 23 24 25 26 27 28 29 30 31 32 33 34 35 36 37 38 39 40 41 42 43 44 45 46 47 48 49 50

000
ASUS43 KFSD 300910
RWRSD

WEATHER ROUNDUP FOR SOUTH DAKOTA
NATIONAL WEATHER SERVICE SIOUX FALLS SD
400 AM CDT TUE MAY 30 2017

NOTE: "FAIR" INDICATES FEW OR NO CLOUDS BELOW 12,000 FEET WITH NO
SIGNIFICANT WEATHER AND/OR OBSTRUCTIONS TO VISIBILITY.


SDZ001>005-009-010-012>017-301000-
NORTHWEST AND NORTH CENTRAL SOUTH DAKOTA

CITY           SKY/WX    TMP DP  RH WIND       PRES   REMARKS
BUFFALO          N/A     42  32  67 W7        30.04S
FAITH            N/A     44  32  62 W5        30.08S
MOBRIDGE       PTCLDY    43  34  70 N5        30.02R
$$

SDZ012>016-024>037-041>051-057-063-072>074-301000-
SOUTHWEST AND SOUTH CENTRAL SOUTH DAKOTA

CITY           SKY/WX    TMP DP  RH WIND       PRES   REMARKS
RAPID CTY ARPT CLEAR     45  30  55 NW10      30.11S
PIERRE         CLEAR     44  34  67 SW7       30.04S
CUSTER         CLEAR     39  24  55 W3        30.17F
ELLSWORTH AFB  CLEAR     40  30  67 NW7       30.10F
PHILIP         CLEAR     37  32  82 W9        30.08F
PINE RIDGE     CLEAR     37  35  92 CALM      30.13S
SPEARFISH      FAIR      43  30  61 CALM      30.14S
WINNER         FAIR      46  36  68 SW7       30.07S
$$

SDZ004>011-016>023-039-040-301000-
NORTHEAST SOUTH DAKOTA

CITY           SKY/WX    TMP DP  RH WIND       PRES   REMARKS
ABERDEEN       CLOUDY    47  38  71 NW8       30.00R
WATERTOWN      PTCLDY    48  41  76 W8        29.96S
BROOKINGS      CLOUDY    49  42  77 W6        29.98S
SISSETON         N/A     52  42  69 NW15      29.93S
$$

SDZ017-020-022-023-036>040-048>070-301000-
SOUTHEAST SOUTH DAKOTA

CITY           SKY/WX    TMP DP  RH WIND       PRES   REMARKS
SIOUX FALLS    CLOUDY    53  46  77 W5        29.99S
HURON          CLOUDY    44  38  79 W6        30.00S
CHAMBERLAIN    PTCLDY    43  39  88 CALM      30.05S
MITCHELL       PTCLDY    49  40  71 W8        30.02S
YANKTON        PTCLDY    51  43  74 W6        30.03R
$$

ABBREVIATIONS USED IN REMARKS
   TC - TEMPERATURE IN CELSIUS
  WCI - WIND CHILL INDEX
   HX - HEAT INDEX
  VSB - VISIBILITY





USA.gov is the U.S. government's official web portal to all federal, state and local government web resources and services.